QPF
0.00 0.00 0.00 0.00 0.00 0.00 0.00 0.00 0.00 0.00 0.00 0.00 0.00 0.00 0.00 0.00 0.00 0.00 0.00 0.00 0.00 0.00 0.00 0.00 0.00 0.00 0.00 0.00 0.00 0.00 0.00 0.00 0.00 0.00 0.00 0.00 0.00 0.00 0.01 0.00 0.00 0.02 0.00 0.00 0.00
0.00 0.00 0.00 0.00 0.00 0.00 0.00 0.00 0.00 0.00 0.00 0.00 0.00 0.00 0.00 0.00 0.00 0.00 0.00 0.00 0.00 0.00 0.00 0.00 0.00 0.00 0.00 0.00 0.00 0.00 0.00 0.00 0.00 0.00 0.00 0.00 0.00 0.00 0.00 0.00 0.00 0.01 0.00 0.00 0.00
0.00 0.00 0.00 0.00 0.00 0.00 0.00 0.00 0.00 0.00 0.00 0.00 0.00 0.00 0.00 0.00 0.00 0.00 0.00 0.00 0.00 0.00 0.00 0.00 0.00 0.00 0.00 0.00 0.00 0.00 0.00 0.00 0.00 0.00 0.00 0.00 0.00 0.00 0.00 0.00 0.00 0.00 0.00 0.00 0.00
0.00 0.00 0.00 0.00 0.00 0.00 0.00 0.00 0.00 0.00 0.00 0.00 0.00 0.00 0.00 0.00 0.00 0.00 0.00 0.00 0.00 0.00 0.00 0.00 0.00 0.00 0.00 0.00 0.00 0.00 0.00 0.00 0.00 0.00 0.00 0.00 0.00 0.00 0.00 0.00 0.00 0.00 0.00 0.00 0.00
0.00 0.00 0.00 0.00 0.00 0.00 0.00 0.00 0.00 0.00 0.00 0.00 0.00 0.00 0.00 0.00 0.00 0.00 0.00 0.00 0.00 0.00 0.00 0.00 0.00 0.00 0.00 0.00 0.00 0.00 0.00 0.00 0.00 0.00 0.00 0.00 0.00 0.00 0.00 0.00 0.00 0.00 0.00 0.00 0.00
0.00 0.00 0.00 0.00 0.00 0.00 0.00 0.00 0.00 0.00 0.00 0.00 0.00 0.00 0.00 0.00 0.00 0.00 0.00 0.00 0.00 0.00 0.00 0.00 0.00 0.00 0.00 0.00 0.00 0.00 0.00 0.00 0.00 0.00 0.00 0.00 0.00 0.00 0.00 0.00 0.00 0.00 0.00 0.00 0.00
0.00 0.00 0.00 0.00 0.00 0.00 0.00 0.00 0.00 0.00 0.00 0.00 0.00 0.00 0.00 0.00 0.00 0.00 0.00 0.00 0.00 0.00 0.00 0.00 0.00 0.00 0.00 0.00 0.00 0.00 0.00 0.00 0.00 0.00 0.00 0.00 0.00 0.00 0.00 0.00 0.00 0.00 0.00 0.00 0.00
0.00 0.00 0.00 0.00 0.00 0.00 0.00 0.00 0.00 0.00 0.00 0.00 0.00 0.00 0.00 0.00 0.00 0.00 0.00 0.00 0.00 0.00 0.00 0.00 0.00 0.00 0.00 0.00 0.00 0.00 0.00 0.00 0.00 0.00 0.00 0.00 0.00 0.00 0.00 0.00 0.00 0.00 0.00 0.00 0.00
0.00 0.00 0.00 0.00 0.00 0.00 0.00 0.00 0.00 0.00 0.00 0.00 0.00 0.00 0.00 0.00 0.00 0.00 0.00 0.00 0.00 0.00 0.00 0.00 0.00 0.00 0.00 0.00 0.00 0.00 0.00 0.00 0.00 0.00 0.00 0.00 0.00 0.00 0.00 0.00 0.00 0.00 0.00 0.00 0.00
0.00 0.00 0.00 0.00 0.00 0.00 0.00 0.00 0.00 0.00 0.00 0.00 0.00 0.00 0.00 0.00 0.00 0.00 0.00 0.00 0.00 0.00 0.00 0.00 0.00 0.00 0.00 0.00 0.00 0.00 0.00 0.00 0.00 0.00 0.00 0.00 0.00 0.00 0.00 0.00 0.00 0.00 0.00 0.00 0.00
0.00 0.00 0.00 0.00 0.00 0.00 0.00 0.00 0.00 0.00 0.00 0.00 0.00 0.00 0.00 0.00 0.00 0.00 0.00 0.00 0.00 0.00 0.00 0.00 0.00 0.00 0.00 0.00 0.00 0.00 0.00 0.00 0.00 0.00 0.00 0.00 0.00 0.00 0.00 0.00 0.00 0.00 0.00 0.00 0.00
0.00 0.00 0.00 0.00 0.00 0.00 0.00 0.00 0.00 0.00 0.00 0.00 0.00 0.00 0.00 0.00 0.00 0.00 0.00 0.00 0.00 0.00 0.00 0.00 0.00 0.00 0.00 0.00 0.00 0.00 0.00 0.00 0.00 0.00 0.00 0.00 0.00 0.00 0.00 0.00 0.00 0.00 0.00 0.00 0.00
0.00 0.00 0.00 0.00 0.00 0.00 0.00 0.00 0.00 0.00 0.00 0.00 0.00 0.00 0.00 0.00 0.00 0.00 0.00 0.00 0.00 0.00 0.00 0.00 0.00 0.00 0.00 0.00 0.00 0.00 0.00 0.00 0.00 0.00 0.00 0.00 0.00 0.00 0.00 0.00 0.00 0.00 0.00 0.00 0.00
0.00 0.00 0.00 0.00 0.00 0.00 0.00 0.00 0.00 0.00 0.00 0.00 0.00 0.00 0.00 0.00 0.00 0.00 0.00 0.00 0.00 0.00 0.00 0.00 0.00 0.00 0.00 0.00 0.00 0.00 0.00 0.00 0.00 0.00 0.00 0.00 0.00 0.00 0.00 0.00 0.00 0.00 0.00 0.00 0.00
0.00 0.00 0.00 0.00 0.00 0.00 0.00 0.00 0.00 0.00 0.00 0.00 0.00 0.00 0.00 0.00 0.00 0.00 0.00 0.00 0.00 0.00 0.00 0.00 0.00 0.00 0.00 0.00 0.00 0.00 0.00 0.00 0.00 0.00 0.00 0.00 0.00 0.00 0.00 0.00 0.00 0.00 0.00 0.00 0.00
0.00 0.00 0.00 0.00 0.00 0.00 0.00 0.00 0.00 0.00 0.00 0.00 0.00 0.00 0.00 0.00 0.00 0.00 0.00 0.00 0.00 0.00 0.00 0.00 0.00 0.00 0.00 0.00 0.00 0.00 0.00 0.00 0.00 0.00 0.00 0.00 0.00 0.00 0.00 0.00 0.00 0.00 0.00 0.00 0.00
0.00 0.00 0.00 0.00 0.00 0.00 0.00 0.00 0.00 0.00 0.00 0.00 0.00 0.00 0.00 0.00 0.00 0.00 0.00 0.00 0.00 0.00 0.00 0.00 0.00 0.00 0.00 0.00 0.00 0.00 0.00 0.00 0.00 0.00 0.00 0.00 0.00 0.00 0.00 0.00 0.00 0.00 0.00 0.00 0.00
0.00 0.00 0.00 0.00 0.00 0.00 0.00 0.00 0.00 0.00 0.00 0.00 0.00 0.00 0.00 0.00 0.00 0.00 0.00 0.00 0.00 0.00 0.00 0.00 0.00 0.00 0.00 0.00 0.00 0.00 0.00 0.00 0.00 0.00 0.00 0.00 0.00 0.00 0.00 0.00 0.00 0.00 0.00 0.00 0.00
0.00 0.00 0.00 0.00 0.00 0.00 0.00 0.00 0.00 0.00 0.00 0.00 0.00 0.00 0.00 0.00 0.00 0.00 0.00 0.00 0.00 0.00 0.00 0.00 0.00 0.00 0.00 0.00 0.00 0.00 0.00 0.00 0.00 0.00 0.00 0.00 0.00 0.00 0.00 0.00 0.00 0.00 0.00 0.00 0.00
0.00 0.00 0.00 0.00 0.00 0.00 0.00 0.00 0.00 0.00 0.00 0.00 0.00 0.00 0.00 0.00 0.00 0.00 0.00 0.00 0.00 0.00 0.00 0.00 0.00 0.00 0.00 0.00 0.00 0.00 0.00 0.00 0.00 0.00 0.00 0.00 0.00 0.00 0.00 0.00 0.00 0.00 0.00 0.00 0.00
0.00 0.00 0.00 0.00 0.00 0.00 0.00 0.00 0.00 0.00 0.00 0.00 0.00 0.00 0.00 0.00 0.00 0.00 0.00 0.00 0.00 0.00 0.00 0.00 0.00 0.00 0.00 0.00 0.00 0.00 0.00 0.00 0.00 0.00 0.00 0.00 0.00 0.00 0.00 0.00 0.00 0.00 0.00 0.00 0.00
0.00 0.00 0.00 0.00 0.00 0.00 0.00 0.00 0.00 0.00 0.00 0.00 0.00 0.00 0.00 0.00 0.00 0.00 0.00 0.00 0.00 0.00 0.00 0.00 0.00 0.00 0.00 0.00 0.00 0.00 0.00 0.00 0.00 0.00 0.00 0.00 0.00 0.00 0.00 0.00 0.00 0.00 0.00 0.00 0.00
0.00 0.00 0.00 0.00 0.00 0.00 0.00 0.00 0.00 0.00 0.00 0.00 0.00 0.00 0.00 0.00 0.00 0.00 0.00 0.00 0.00 0.00 0.00 0.00 0.00 0.00 0.00 0.00 0.00 0.00 0.00 0.00 0.00 0.00 0.00 0.00 0.00 0.00 0.00 0.00 0.00 0.00 0.00 0.00 0.00
0.00 0.00 0.00 0.00 0.00 0.00 0.00 0.00 0.00 0.00 0.00 0.00 0.00 0.00 0.00 0.00 0.00 0.00 0.00 0.00 0.00 0.00 0.00 0.00 0.00 0.00 0.00 0.00 0.00 0.00 0.00 0.00 0.00 0.00 0.00 0.00 0.00 0.00 0.00 0.00 0.00 0.00 0.00 0.00 0.00
0.00 0.00 0.00 0.00 0.00 0.00 0.00 0.00 0.00 0.00 0.00 0.00 0.00 0.00 0.00 0.00 0.00 0.00 0.00 0.00 0.00 0.00 0.00 0.00 0.00 0.00 0.00 0.00 0.00 0.00 0.00 0.00 0.00 0.00 0.00 0.00 0.00 0.00 0.00 0.00 0.00 0.00 0.00 0.00 0.00
0.00 0.00 0.00 0.00 0.00 0.00 0.00 0.00 0.00 0.00 0.00 0.00 0.00 0.00 0.00 0.00 0.00 0.00 0.00 0.00 0.00 0.01 0.00 0.00 0.00 0.00 0.00 0.00 0.00 0.00 0.00 0.00 0.00 0.00 0.00 0.00 0.00 0.00 0.00 0.00 0.00 0.00 0.00 0.00 0.00
0.00 0.00 0.00 0.00 0.00 0.00 0.00 0.00 0.00 0.00 0.00 0.00 0.00 0.00 0.00 0.00 0.00 0.00 0.00 0.00 0.00 0.00 0.00 0.00 0.00 0.00 0.00 0.00 0.00 0.00 0.00 0.00 0.00 0.00 0.00 0.00 0.00 0.00 0.00 0.00 0.00 0.00 0.00 0.00 0.00
MSLP
1022.48 1022.06 1021.65 1021.23 1020.88 1020.49 1020.08 1019.68 1019.26 1018.92 1018.54 1018.07 1017.59 1017.31 1016.86 1016.40 1015.82 1015.78 1014.83 1012.06 1011.82 1011.48 1011.84 1011.71 1011.77 1011.87 1012.06 1012.25 1012.00 1012.33 1013.53 1013.69 1013.22 1012.19 1012.65 1012.53 1012.90 1012.96 1012.82 1013.03 1013.15 1013.42 1012.20 1012.24 1012.11
1022.50 1022.08 1021.64 1021.19 1020.71 1020.24 1019.90 1019.53 1019.06 1018.65 1018.28 1017.89 1017.46 1017.23 1016.82 1016.43 1015.94 1014.30 1010.76 1010.56 1010.85 1011.29 1011.93 1012.01 1012.01 1012.20 1012.34 1012.01 1011.78 1012.12 1013.05 1012.41 1011.38 1010.88 1012.19 1012.34 1012.59 1013.13 1013.25 1012.46 1011.78 1011.49 1012.29 1012.77 1012.46
1022.57 1022.06 1021.53 1021.09 1020.58 1020.12 1019.77 1019.39 1018.85 1018.36 1017.95 1017.65 1017.33 1017.02 1016.63 1016.37 1015.40 1011.43 1009.48 1009.76 1010.33 1010.98 1011.13 1011.45 1011.86 1012.22 1012.26 1011.90 1011.68 1011.58 1011.91 1010.74 1010.01 1010.15 1010.95 1011.68 1012.63 1012.62 1012.37 1012.26 1010.43 1010.46 1010.87 1012.62 1012.92
1022.55 1022.07 1021.57 1021.10 1020.54 1020.04 1019.61 1019.14 1018.62 1018.12 1017.72 1017.39 1017.16 1016.83 1016.42 1016.08 1013.94 1009.74 1009.13 1009.17 1010.14 1010.74 1011.17 1011.37 1011.67 1012.13 1012.01 1011.69 1011.00 1011.34 1010.50 1009.93 1009.22 1009.35 1010.03 1010.87 1011.52 1011.67 1011.00 1010.48 1009.78 1010.20 1010.21 1010.94 1012.31
1022.51 1021.98 1021.50 1021.00 1020.46 1019.94 1019.39 1018.81 1018.34 1017.86 1017.49 1017.20 1016.99 1016.68 1016.37 1015.42 1012.53 1009.31 1009.34 1009.52 1010.25 1010.80 1011.18 1011.52 1011.72 1011.84 1011.69 1010.99 1010.75 1010.59 1009.76 1009.23 1008.60 1008.76 1008.74 1009.82 1010.63 1010.71 1010.70 1010.06 1010.21 1010.55 1011.11 1010.50 1011.31
1022.37 1021.87 1021.35 1020.79 1020.23 1019.69 1019.02 1018.37 1017.85 1017.42 1017.11 1016.85 1016.69 1016.57 1016.15 1014.30 1009.73 1009.27 1009.52 1010.18 1010.07 1010.66 1010.90 1011.32 1010.86 1011.11 1011.23 1010.78 1010.72 1009.83 1009.59 1009.01 1008.31 1008.02 1008.46 1009.38 1010.32 1010.49 1010.49 1010.29 1010.29 1010.64 1010.67 1010.83 1010.68
1022.52 1021.96 1021.32 1020.61 1019.95 1019.28 1018.54 1017.81 1017.22 1016.85 1016.61 1016.35 1016.32 1016.32 1015.45 1011.78 1009.56 1009.58 1010.02 1010.27 1009.72 1010.07 1010.37 1010.15 1010.32 1011.24 1010.82 1010.60 1009.84 1009.58 1009.43 1008.70 1008.06 1007.61 1007.99 1008.99 1010.75 1009.78 1009.48 1010.00 1009.99 1010.01 1009.87 1009.73 1010.07
1022.44 1021.88 1021.23 1020.47 1019.65 1018.92 1018.07 1017.22 1016.54 1016.13 1015.98 1015.89 1016.01 1015.89 1013.91 1010.15 1009.65 1009.86 1009.62 1009.84 1009.82 1009.48 1009.61 1009.34 1010.10 1010.78 1010.99 1010.18 1009.85 1009.97 1009.63 1009.29 1007.82 1007.36 1006.98 1008.01 1008.81 1008.64 1009.07 1009.55 1009.94 1009.79 1009.75 1010.20 1011.45
1022.39 1021.80 1021.08 1020.27 1019.41 1018.54 1017.48 1016.44 1015.67 1015.32 1015.58 1015.71 1015.93 1015.40 1012.76 1009.48 1009.35 1008.36 1008.96 1009.34 1009.25 1009.26 1009.24 1009.13 1009.92 1010.38 1010.31 1010.69 1011.23 1010.90 1010.41 1009.78 1008.48 1007.62 1007.68 1007.87 1008.04 1007.77 1008.41 1009.06 1009.39 1009.75 1010.54 1011.51 1012.29
1022.19 1021.54 1020.76 1019.89 1019.10 1018.19 1016.89 1015.51 1015.02 1015.16 1015.51 1015.47 1015.03 1014.88 1011.35 1009.17 1008.10 1007.55 1007.99 1008.51 1009.12 1009.07 1009.57 1009.70 1010.13 1010.45 1010.99 1011.48 1011.94 1011.55 1011.10 1009.98 1009.17 1007.52 1007.59 1007.38 1007.29 1008.08 1007.97 1008.64 1008.68 1010.23 1010.60 1011.32 1011.87
1022.18 1021.39 1020.50 1019.54 1018.63 1017.94 1016.83 1015.47 1015.37 1015.23 1014.96 1014.23 1013.27 1012.01 1010.01 1008.88 1007.51 1007.36 1007.36 1007.93 1008.64 1009.26 1009.98 1009.87 1010.54 1010.87 1011.11 1011.34 1011.29 1011.23 1010.94 1010.20 1008.97 1007.84 1007.46 1006.28 1006.64 1006.59 1007.36 1008.81 1009.89 1010.30 1010.40 1010.97 1011.95
1022.24 1021.36 1020.34 1019.20 1018.10 1017.52 1017.41 1016.63 1015.86 1015.56 1013.59 1012.19 1011.54 1010.84 1009.49 1009.68 1009.26 1007.43 1007.08 1008.04 1008.66 1009.47 1009.99 1010.48 1010.37 1010.36 1010.57 1010.73 1011.04 1011.01 1010.83 1009.78 1008.56 1007.64 1007.16 1006.87 1006.92 1006.66 1007.04 1007.97 1008.88 1010.22 1011.17 1011.64 1012.15
1022.23 1021.41 1020.33 1018.90 1017.58 1017.08 1017.26 1016.02 1015.13 1014.40 1013.92 1010.81 1009.52 1008.86 1008.51 1008.74 1008.77 1007.46 1007.23 1007.64 1008.50 1009.48 1009.93 1010.26 1009.81 1009.79 1010.23 1010.19 1010.50 1010.20 1010.08 1009.14 1008.57 1007.60 1007.27 1007.34 1007.84 1007.69 1008.71 1009.00 1009.81 1010.78 1011.26 1012.18 1011.62
1022.28 1021.62 1020.69 1019.20 1017.67 1018.45 1016.86 1015.50 1014.81 1014.59 1014.05 1010.12 1008.44 1007.15 1007.38 1007.90 1007.57 1006.69 1006.88 1007.37 1008.40 1009.04 1009.91 1009.89 1009.27 1009.47 1009.52 1009.43 1009.56 1009.45 1008.62 1008.47 1008.27 1008.76 1008.82 1008.57 1009.65 1008.84 1010.25 1010.54 1011.08 1011.66 1012.43 1012.70 1013.10
1022.18 1021.63 1021.05 1020.72 1020.14 1018.98 1016.68 1015.75 1014.96 1014.64 1013.17 1008.27 1006.98 1005.86 1006.34 1006.92 1006.46 1005.90 1005.97 1006.77 1007.81 1008.72 1009.50 1008.94 1008.74 1008.81 1008.87 1008.44 1008.29 1008.48 1008.01 1008.31 1008.41 1009.28 1009.76 1009.95 1010.30 1009.48 1010.33 1011.62 1012.02 1012.64 1013.31 1013.21 1013.26
1021.91 1021.39 1021.06 1020.48 1020.39 1017.81 1016.85 1015.95 1015.44 1015.10 1011.81 1007.91 1006.21 1006.21 1006.91 1006.87 1006.47 1006.10 1006.21 1006.76 1007.55 1008.61 1008.83 1008.89 1008.26 1008.27 1007.69 1007.32 1007.56 1007.63 1007.86 1008.65 1009.61 1010.31 1010.54 1010.19 1010.66 1010.31 1009.98 1010.62 1011.97 1012.83 1013.40 1013.80 1013.67
1021.54 1020.94 1020.93 1020.51 1018.52 1017.17 1016.95 1016.53 1016.39 1014.83 1010.83 1008.81 1007.85 1007.35 1006.60 1006.92 1007.25 1007.02 1007.29 1007.59 1008.27 1008.99 1009.19 1008.93 1008.18 1007.76 1007.62 1007.55 1007.20 1007.63 1008.97 1010.22 1011.51 1011.92 1011.28 1010.51 1010.27 1009.61 1008.66 1009.41 1010.06 1011.87 1013.44 1014.30 1014.51
1020.90 1020.05 1019.07 1018.27 1017.53 1017.84 1017.62 1017.48 1016.45 1013.66 1011.46 1009.52 1008.94 1007.49 1007.42 1007.15 1007.25 1007.13 1007.72 1008.31 1008.45 1008.78 1009.36 1009.38 1008.60 1007.25 1006.83 1006.98 1007.14 1007.81 1008.80 1010.42 1011.94 1012.79 1011.71 1010.62 1010.05 1009.38 1008.41 1007.83 1009.26 1011.21 1012.71 1013.84 1014.53
1020.56 1019.58 1018.83 1016.21 1017.00 1017.65 1018.11 1017.96 1015.86 1013.70 1011.78 1010.91 1009.64 1008.66 1008.08 1007.70 1008.23 1007.38 1007.52 1007.68 1007.91 1008.28 1008.93 1008.83 1008.03 1006.78 1006.38 1006.34 1006.96 1007.60 1008.34 1009.02 1011.02 1012.25 1012.16 1010.96 1010.10 1009.87 1009.96 1010.19 1010.97 1012.21 1013.45 1014.27 1014.55
1021.39 1020.40 1018.20 1015.63 1016.26 1017.31 1018.07 1017.33 1015.45 1013.41 1012.58 1011.75 1011.28 1010.28 1010.00 1009.79 1009.42 1008.79 1008.01 1007.04 1006.88 1006.86 1007.29 1007.98 1007.98 1006.95 1006.14 1006.39 1006.30 1006.77 1007.09 1009.39 1011.28 1012.42 1012.69 1011.06 1010.27 1010.08 1010.51 1010.83 1011.80 1012.63 1013.28 1014.07 1014.70
1021.31 1019.92 1015.42 1015.23 1015.96 1017.20 1017.86 1016.74 1014.95 1013.25 1013.09 1012.53 1011.95 1011.63 1011.28 1010.95 1010.19 1009.66 1008.46 1007.42 1007.11 1007.31 1007.51 1007.26 1008.03 1006.84 1006.59 1006.37 1006.52 1006.82 1007.33 1008.66 1010.14 1011.37 1012.08 1011.30 1010.15 1008.07 1008.44 1009.21 1009.96 1011.29 1012.20 1013.22 1014.55
1021.29 1019.82 1015.65 1015.58 1016.66 1017.20 1017.23 1016.12 1015.04 1013.96 1013.25 1013.26 1012.48 1012.37 1012.07 1011.73 1010.89 1010.22 1008.82 1008.02 1007.33 1007.94 1008.02 1007.48 1007.72 1007.50 1006.51 1005.63 1005.65 1006.25 1006.99 1007.96 1009.55 1010.88 1011.16 1010.64 1008.95 1007.35 1007.46 1008.35 1009.10 1010.60 1012.21 1013.40 1014.19
1022.19 1019.98 1015.79 1015.57 1016.69 1017.36 1016.80 1015.99 1015.19 1014.47 1013.77 1013.14 1012.83 1012.65 1012.44 1012.08 1011.62 1009.90 1008.81 1007.93 1007.69 1008.03 1008.30 1008.62 1008.20 1008.02 1006.61 1005.85 1005.41 1005.61 1005.89 1006.63 1007.88 1008.87 1009.65 1010.09 1008.42 1007.66 1007.59 1008.70 1009.75 1010.50 1011.87 1012.94 1013.51
1022.64 1020.87 1018.00 1016.93 1016.89 1017.15 1017.12 1016.40 1015.47 1014.24 1013.65 1013.30 1013.03 1012.84 1012.64 1012.09 1011.57 1010.30 1009.30 1008.38 1008.03 1007.99 1008.03 1008.21 1008.01 1007.53 1006.23 1005.23 1005.08 1005.13 1005.04 1005.41 1006.46 1008.08 1008.51 1008.31 1008.07 1007.70 1008.11 1008.38 1009.45 1010.62 1011.11 1011.78 1012.58
1022.88 1021.27 1019.83 1018.93 1018.12 1017.65 1017.31 1016.89 1015.87 1014.94 1013.89 1013.58 1013.24 1013.64 1014.23 1013.73 1012.36 1011.12 1010.22 1008.59 1007.92 1007.70 1007.90 1008.48 1008.17 1007.20 1005.40 1004.51 1004.09 1004.04 1004.36 1004.79 1005.65 1005.79 1006.85 1006.92 1007.43 1006.99 1007.39 1007.74 1008.17 1009.05 1010.60 1011.47 1012.40
1023.01 1021.96 1020.91 1019.75 1018.97 1017.98 1017.53 1016.87 1016.30 1015.47 1014.80 1014.20 1014.26 1014.41 1014.76 1014.81 1014.35 1013.46 1012.76 1012.00 1010.38 1008.69 1007.93 1008.27 1008.05 1007.50 1006.16 1004.21 1003.63 1003.47 1003.46 1003.55 1004.16 1004.83 1005.48 1005.54 1006.18 1005.95 1007.03 1008.18 1009.03 1009.32 1010.25 1011.09 1011.90
1022.36 1021.94 1021.67 1020.17 1019.34 1018.60 1017.73 1017.23 1016.80 1016.30 1015.09 1014.79 1014.93 1015.05 1014.88 1014.81 1014.66 1013.86 1012.80 1012.24 1010.93 1010.22 1009.15 1008.53 1008.16 1008.09 1007.27 1005.94 1003.86 1003.56 1001.98 1002.63 1003.19 1003.56 1004.31 1005.04 1005.39 1006.27 1007.73 1008.14 1008.61 1009.44 1009.91 1010.74 1011.74
Thickness
5704 5708 5713 5718 5722 5727 5731 5734 5738 5742 5745 5750 5754 5757 5762 5766 5771 5772 5774 5800 5803 5808 5806 5806 5803 5801 5800 5793 5803 5801 5760 5751 5763 5780 5771 5790 5779 5790 5796 5787 5789 5786 5799 5802 5816
5701 5705 5710 5715 5720 5725 5729 5733 5737 5742 5746 5750 5754 5757 5760 5764 5767 5773 5812 5813 5811 5808 5799 5791 5785 5788 5778 5786 5793 5780 5752 5770 5791 5801 5773 5786 5786 5783 5780 5786 5795 5795 5805 5801 5807
5697 5702 5708 5712 5718 5723 5727 5731 5736 5741 5745 5749 5753 5756 5760 5762 5766 5791 5819 5818 5814 5809 5807 5800 5793 5786 5775 5784 5785 5786 5766 5796 5805 5807 5797 5790 5782 5787 5784 5782 5809 5800 5807 5799 5800
5694 5699 5704 5709 5714 5720 5724 5730 5735 5740 5744 5748 5751 5755 5760 5763 5749 5809 5820 5821 5814 5809 5802 5795 5787 5775 5769 5773 5789 5778 5796 5802 5810 5814 5804 5792 5799 5794 5799 5806 5822 5815 5825 5812 5799
5691 5696 5700 5705 5710 5716 5722 5728 5733 5738 5743 5746 5749 5753 5758 5758 5771 5815 5816 5815 5810 5804 5793 5785 5779 5774 5766 5780 5786 5783 5796 5805 5814 5811 5815 5808 5798 5800 5798 5816 5818 5816 5810 5812 5811
5688 5693 5698 5703 5708 5713 5720 5727 5733 5738 5742 5745 5748 5750 5755 5744 5809 5813 5812 5807 5808 5800 5794 5787 5785 5783 5776 5779 5773 5792 5794 5800 5811 5813 5814 5798 5793 5800 5801 5811 5811 5810 5807 5811 5812
5683 5689 5694 5700 5706 5712 5719 5726 5733 5738 5741 5745 5746 5748 5751 5763 5807 5807 5804 5802 5808 5803 5793 5799 5796 5782 5782 5775 5795 5796 5785 5795 5807 5821 5816 5803 5782 5793 5812 5806 5806 5809 5815 5820 5818
5680 5685 5691 5697 5705 5711 5719 5727 5733 5739 5741 5744 5745 5747 5747 5796 5803 5799 5803 5799 5805 5808 5803 5808 5800 5784 5779 5792 5787 5781 5784 5767 5805 5822 5828 5813 5778 5805 5813 5805 5801 5809 5817 5816 5801
5674 5680 5687 5694 5702 5710 5719 5729 5736 5740 5739 5739 5740 5742 5746 5797 5792 5806 5803 5793 5799 5803 5804 5808 5796 5779 5784 5765 5748 5759 5749 5763 5779 5811 5809 5808 5789 5810 5814 5809 5806 5808 5805 5795 5790
5671 5677 5684 5692 5699 5707 5719 5732 5736 5735 5733 5734 5741 5733 5763 5776 5796 5808 5808 5801 5789 5791 5784 5783 5772 5760 5754 5743 5721 5740 5747 5758 5762 5798 5798 5794 5796 5800 5812 5808 5812 5800 5801 5793 5793
5664 5672 5680 5689 5698 5702 5715 5725 5723 5724 5729 5729 5739 5746 5768 5785 5803 5798 5804 5795 5788 5776 5753 5769 5749 5738 5749 5755 5758 5758 5753 5753 5773 5795 5787 5791 5804 5812 5811 5804 5793 5791 5797 5801 5791
5656 5664 5674 5685 5695 5701 5705 5711 5709 5718 5718 5744 5750 5754 5771 5772 5760 5783 5802 5774 5767 5748 5757 5751 5738 5758 5765 5763 5757 5753 5744 5755 5776 5793 5798 5792 5791 5816 5818 5807 5804 5792 5789 5792 5789
5649 5657 5667 5680 5693 5698 5697 5706 5715 5724 5710 5738 5757 5761 5763 5769 5757 5771 5786 5775 5761 5746 5747 5735 5753 5767 5761 5756 5750 5753 5749 5759 5765 5784 5795 5792 5776 5797 5790 5795 5794 5790 5792 5789 5797
5642 5648 5657 5670 5684 5677 5690 5704 5711 5717 5684 5726 5746 5764 5769 5767 5759 5786 5789 5775 5759 5746 5743 5742 5761 5759 5755 5754 5758 5736 5773 5777 5777 5760 5738 5779 5726 5772 5765 5772 5775 5776 5776 5781 5780
5637 5642 5648 5651 5655 5665 5687 5696 5705 5704 5663 5749 5753 5784 5771 5759 5767 5774 5792 5773 5750 5749 5745 5745 5756 5750 5747 5760 5771 5757 5779 5778 5779 5757 5751 5753 5729 5760 5766 5753 5760 5765 5768 5775 5781
5632 5638 5641 5648 5649 5671 5680 5688 5691 5664 5661 5727 5756 5750 5744 5753 5758 5768 5768 5775 5766 5745 5750 5747 5768 5759 5763 5777 5775 5782 5778 5760 5747 5737 5713 5748 5733 5736 5760 5762 5759 5761 5765 5768 5775
5628 5635 5636 5641 5657 5670 5674 5675 5647 5642 5711 5714 5719 5736 5740 5737 5737 5745 5742 5736 5723 5710 5719 5739 5747 5761 5770 5755 5770 5768 5734 5698 5698 5697 5705 5751 5739 5742 5782 5777 5777 5765 5760 5760 5762
5628 5638 5647 5652 5662 5659 5661 5651 5639 5675 5687 5717 5713 5728 5724 5736 5734 5737 5726 5715 5729 5729 5710 5702 5707 5752 5772 5757 5752 5745 5735 5693 5685 5683 5705 5741 5727 5744 5775 5793 5785 5771 5763 5759 5755
5624 5636 5642 5662 5659 5655 5645 5624 5641 5664 5691 5690 5701 5703 5708 5726 5716 5726 5720 5724 5731 5728 5709 5702 5712 5760 5764 5771 5760 5748 5729 5748 5715 5712 5699 5717 5744 5758 5761 5760 5760 5753 5749 5747 5750
5607 5614 5633 5658 5656 5647 5631 5629 5649 5678 5680 5684 5670 5688 5677 5688 5695 5702 5708 5733 5735 5743 5741 5722 5702 5747 5760 5763 5762 5752 5766 5722 5698 5689 5680 5708 5726 5720 5737 5741 5742 5741 5742 5742 5741
5597 5608 5647 5650 5646 5630 5615 5626 5654 5674 5671 5667 5667 5665 5673 5675 5689 5688 5705 5726 5734 5730 5731 5736 5708 5734 5741 5730 5733 5735 5732 5730 5718 5700 5680 5680 5704 5754 5760 5758 5755 5751 5748 5745 5736
5580 5595 5633 5635 5615 5612 5615 5632 5645 5654 5659 5656 5665 5662 5663 5669 5672 5679 5693 5711 5730 5721 5710 5721 5709 5703 5724 5754 5759 5748 5739 5728 5697 5702 5700 5694 5703 5772 5772 5766 5764 5752 5742 5739 5733
5557 5573 5618 5622 5603 5601 5611 5623 5631 5637 5645 5650 5652 5658 5662 5661 5659 5682 5698 5719 5723 5714 5703 5705 5686 5680 5704 5728 5743 5734 5743 5743 5723 5718 5704 5692 5705 5762 5763 5757 5748 5743 5739 5734 5732
5543 5560 5583 5596 5598 5599 5600 5604 5611 5632 5635 5643 5644 5651 5652 5657 5663 5672 5684 5706 5716 5712 5711 5704 5693 5692 5696 5722 5733 5728 5743 5745 5734 5695 5708 5710 5730 5750 5747 5747 5744 5739 5738 5737 5733
5527 5544 5563 5567 5580 5587 5592 5593 5597 5605 5624 5632 5633 5632 5619 5628 5647 5662 5678 5692 5709 5713 5706 5694 5681 5693 5727 5739 5743 5742 5742 5744 5730 5735 5717 5734 5728 5747 5746 5748 5750 5748 5737 5732 5726
5513 5526 5536 5549 5561 5574 5575 5583 5586 5594 5602 5607 5609 5612 5611 5610 5619 5626 5636 5644 5659 5689 5699 5693 5677 5684 5700 5731 5739 5733 5740 5742 5742 5739 5733 5744 5737 5759 5747 5743 5735 5739 5735 5729 5723
5514 5516 5516 5536 5549 5557 5562 5570 5573 5577 5593 5600 5597 5598 5602 5609 5611 5622 5634 5639 5654 5657 5673 5679 5679 5672 5668 5695 5720 5703 5738 5737 5743 5747 5744 5726 5743 5742 5732 5736 5736 5734 5735 5727 5721